x

Pembrey Sands Samos (03605) Weather Station

2:00am - Mon 2nd Feb 2015 All times are GMT.

  • Wind
    2mph
  • Air Temp 34°f
  • Sea Pressure 1008mb
  • Pembrey Sands Samos
  • Pembrey Sands Samos

More Historic Weather Station data

Upgrade to MSW Pro to gain access to the past 30 days of data for over 8000 Wavebouys and Weather Stations around the globe.

Join Pro

Comparision Forecast

View Surf forecast
   
Mon 02/02 2:00am 2
mph
1008mb 34f
1:00am 2
mph
1008mb 35f
12:00am 9
mph
1008mb 36f
Sun 02/01 11:00pm 7
mph
1008mb 36f
10:00pm 10
mph
1008mb 36f
9:00pm 6
mph
1008mb 35f
8:00pm 9
mph
1008mb 37f
7:00pm 7
mph
1008mb 38f
6:00pm 16
mph
1007mb 39f
5:00pm 17 29 mph 1007mb 39f
4:00pm 21 33 mph 1007mb 40f
3:00pm 19 31 mph 1007mb 42f
2:00pm 19 31 mph 1006mb 43f
1:00pm 21 33 mph 1006mb 42f
12:00pm 21 34 mph 1007mb 43f
11:00am 21 31 mph 1006mb 42f
10:00am 21
mph
1006mb 40f
9:00am 21 36 mph 1005mb 39f
8:00am 22 31 mph 1004mb 39f
7:00am 19 36 mph 1004mb 38f
6:00am 30 44 mph 1003mb 40f
5:00am 33 47 mph 1002mb 40f
4:00am 36 45 mph 1002mb 39f
3:00am 31 45 mph 1002mb 40f
2:00am 34 47 mph 1002mb 39f
1:00am 23 41 mph 1002mb 38f
12:00am 25 37 mph 1002mb 38f
Sat 01/31 11:00pm 13 40 mph 1001mb 39f
10:00pm 25 52 mph 1000mb 39f
9:00pm 23 38 mph 1000mb 39f
8:00pm 21 43 mph 999mb 40f
7:00pm 23 41 mph 998mb 40f
6:00pm 21 34 mph 997mb 40f
5:00pm 16 47 mph 996mb 37f
4:00pm 24 53 mph 995mb 39f
3:00pm 24 46 mph 994mb 42f
2:00pm 19 43 mph 992mb 43f
1:00pm 18 51 mph 991mb 41f
12:00pm 25 39 mph 991mb 39f
11:00am 17 43 mph 990mb 39f
10:00am 28 45 mph 988mb 38f
9:00am 33 48 mph 987mb 37f
8:00am 19 39 mph 986mb 42f
7:00am 32 44 mph 984mb 41f
6:00am 31 41 mph 984mb 40f
5:00am 25 38 mph 984mb 40f
4:00am 22 36 mph 983mb 39f
3:00am 25 38 mph 984mb 38f
2:00am 26 36 mph 983mb 40f
1:00am 21 31 mph 983mb 39f
12:00am 23 30 mph 983mb 39f
Fri 01/30 11:00pm 19
mph
983mb 39f
10:00pm 16
mph
983mb 38f
9:00pm 10
mph
983mb 38f
8:00pm 15 33 mph 983mb 36f
7:00pm 16
mph
983mb 40f
6:00pm 17
mph
983mb 42f
5:00pm 18
mph
983mb 42f
4:00pm 18 29 mph 983mb 44f
3:00pm 24 30 mph 983mb 45f
2:00pm 19 29 mph 983mb 44f
1:00pm 22 30 mph 984mb 45f
12:00pm 19 29 mph 984mb 44f
11:00am 18 29 mph 984mb 43f
10:00am 11
mph
983mb 42f
9:00am 13
mph
983mb 41f
8:00am 9
mph
983mb 39f
7:00am 17
mph
982mb 39f
6:00am 11 52 mph 982mb 38f
5:00am 26 61 mph 981mb 40f
4:00am 45 59 mph 978mb 40f
3:00am 41 57 mph 978mb 42f
2:00am 38 52 mph 978mb 43f
1:00am 36 48 mph 979mb 43f
12:00am 33 47 mph 981mb 43f
Thu 01/29 11:00pm 32 40 mph 982mb 42f
10:00pm 25 34 mph 983mb 41f
9:00pm 26 34 mph 983mb 40f
8:00pm 26 37 mph 983mb 39f
7:00pm 26 36 mph 983mb 39f
6:00pm 28 40 mph 983mb 39f
5:00pm 33 41 mph 982mb 39f
4:00pm 29 40 mph 982mb 40f
3:00pm 32 43 mph 981mb 38f
2:00pm 25 61 mph 982mb 36f
1:00pm 29 39 mph 983mb 38f
12:00pm 29 44 mph 984mb 40f
11:00am 25 39 mph 985mb 41f
10:00am 30 41 mph 987mb 40f
9:00am 21 34 mph 988mb 41f
8:00am 26 37 mph 990mb 40f
7:00am 19 30 mph 991mb 41f
6:00am 25 40 mph 992mb 42f
5:00am 28 41 mph 994mb 42f
4:00am 26 41 mph 995mb 41f
3:00am 24 33 mph 996mb 42f